Change the Weather History Date:

Thursday, November 7, 2013

  Actual Average Record
Temperature  
Mean Temperature 42 °F -  
Max Temperature 50 °F - - ()
Min Temperature 34 °F - - ()
Degree Days  
Heating Degree Days 23    
Moisture  
Dew Point 39 °F    
Average Humidity 72    
Maximum Humidity 94    
Minimum Humidity 47    
Precipitation  
Precipitation 0.04 in - - ()
Sea Level Pressure  
Sea Level Pressure 29.79 in    
Wind  
Wind Speed 11 mph ()    
Max Wind Speed 17 mph    
Max Gust Speed 29 mph    
T = Trace of Precipitation, MM = Missing Value Source: Averaged Metar Reports

Daily Weather History Graph

Daily Weather History Graph

Search for Another Location

Airport or City:

Trip Planner

Search our weather history database for the weather conditions in past years. The results will help you decide how hot, cold, wet, or windy it might be!

Date:

Astronomy

Nov. 07, 2013 Rise Set
Actual Time 6:44 AM EST 4:36 PM EST
Civil Twilight 6:13 AM EST 5:07 PM EST
Nautical Twilight 5:38 AM EST 5:42 PM EST
Astronomical Twilight 5:03 AM EST 6:17 PM EST
Moon 10:53 AM EST (11/7) 8:43 PM EST (11/7)
Length of Visible Light 10h 54m
Length of Day
9h 52m
Waxing Crescent, 22% of the Moon is Illuminated
Nov 7
Waxing Crescent
Nov 10
First Quarter
Nov 17
Full
Nov 25
Last Quarter
Dec 2
New

Hourly Weather History & Observations

Time (EST) Temp. Windchill Dew Point Humidity Pressure Visibility Wind Dir Wind Speed Gust Speed Precip Events Conditions
12:00 AM 57.9 °F - 52.3 °F 82% 29.70 in - SW 12.7 mph 19.6 mph N/A   Unknown
1:00 AM 60 °F - 52 °F 67% 29.69 in - SW 15.0 mph - -  
1:00 AM 60.3 °F - 52.0 °F 74% 29.69 in - SW 15.0 mph 24.2 mph N/A   Unknown
2:00 AM 61.0 °F - 52.5 °F 74% 29.68 in - SW 16.1 mph 26.5 mph N/A   Unknown
3:00 AM 60.3 °F - 52.7 °F 76% 29.66 in - SW 17.3 mph 27.6 mph N/A   Unknown
4:00 AM 57.9 °F - 54.0 °F 87% 29.65 in - SW 16.1 mph 28.8 mph N/A   Unknown
5:00 AM 56.5 °F - 54.1 °F 92% 29.65 in - SW 13.8 mph 23.0 mph N/A   Unknown
6:00 AM 55.6 °F - 54.0 °F 94% 29.65 in - WSW 13.8 mph 24.2 mph N/A   Unknown
7:00 AM 51 °F - 49 °F 88% 29.70 in - West 11.5 mph - -  
7:00 AM 50.9 °F - 48.6 °F 92% 29.70 in - West 11.5 mph - 0.05 in   Unknown
8:00 AM 48.4 °F - 44.4 °F 86% 29.75 in - West 11.5 mph 17.3 mph N/A   Unknown
9:00 AM 45.1 °F 39.1 °F 39.7 °F 81% 29.80 in - WNW 12.7 mph 20.7 mph N/A   Unknown
10:00 AM 43.7 °F 37.7 °F 36.3 °F 75% 29.80 in - WNW 11.5 mph 19.6 mph N/A   Unknown
11:00 AM 44.2 °F 37.3 °F 34.5 °F 69% 29.83 in - WNW 15.0 mph 23.0 mph N/A   Unknown
12:00 PM 44.4 °F 39.0 °F 34.3 °F 68% 29.83 in - WNW 10.4 mph - N/A   Unknown
1:00 PM 44 °F - 34 °F 57% 29.83 in - West 11.5 mph - -  
1:00 PM 43.5 °F 37.5 °F 33.8 °F 69% 29.83 in - West 11.5 mph 18.4 mph N/A   Unknown
2:00 PM 42.4 °F 35.7 °F 31.5 °F 65% 29.83 in - West 12.7 mph 21.9 mph N/A   Unknown
3:00 PM 41.5 °F 35.4 °F 31.1 °F 66% 29.84 in - WNW 10.4 mph - N/A   Unknown
4:00 PM 39.9 °F 33.4 °F 29.3 °F 66% 29.85 in - WNW 10.4 mph 18.4 mph N/A   Unknown
5:00 PM 39.6 °F 33.5 °F 28.6 °F 65% 29.86 in - WNW 9.2 mph - N/A   Unknown
6:00 PM 39.2 °F 33.0 °F 28.0 °F 64% 29.88 in - West 9.2 mph - N/A   Unknown
7:00 PM 39 °F - 26 °F 47% 29.89 in - West 8.1 mph - -  
7:00 PM 38.7 °F 32.9 °F 25.9 °F 60% 29.89 in - West 8.1 mph - N/A   Unknown
8:00 PM 38.1 °F 32.3 °F 25.3 °F 60% 29.89 in - West 8.1 mph - N/A   Unknown
9:00 PM 38.3 °F 32.5 °F 25.5 °F 60% 29.89 in - West 8.1 mph - N/A   Unknown
10:00 PM 34.7 °F 30.6 °F 26.6 °F 72% 29.88 in - WSW 4.6 mph - N/A   Unknown
11:00 PM 35.4 °F 29.7 °F 27.3 °F 72% 29.87 in - WSW 6.9 mph - N/A   Unknown